Wind_Speed
23 24 23 21 18 16 16 17 18 17 15 13 14 17 19 20 19 19 19 19 19 18 18 18 18 19 20 19 19 19 19 18 16 14 15 13 10 13 15 14 13 14 16 16 14 13 14 15 15 15 14 13 14 14 13 14 13 8 3 5 7 7 8 7 8 8 6 5 4 7 9 5 3 6 8 6 9 14 13 14 13 12 17 16 11 11 12 18
23 23 25 24 20 18 17 17 17 18 18 15 12 13 14 17 18 19 19 19 20 20 18 18 18 19 20 19 18 18 17 16 17 17 16 14 12 14 15 14 14 14 15 18 15 13 13 13 15 15 15 12 11 14 12 13 15 10 3 5 9 7 8 10 10 10 10 9 5 7 8 6 4 3 6 5 6 12 13 13 16 16 17 18 16 17 17 19
22 23 24 25 23 19 18 18 17 17 17 17 15 13 12 13 15 17 18 19 20 21 20 18 18 19 20 20 18 16 15 16 16 14 14 16 16 17 16 14 16 16 15 17 16 14 12 9 11 14 15 13 11 15 12 11 14 12 8 6 8 7 9 14 16 15 10 6 4 2 7 8 6 4 4 4 6 8 9 10 14 17 20 20 20 23 23 23
22 23 23 23 23 22 21 19 17 17 16 15 16 15 14 12 12 13 15 17 19 21 21 19 19 19 20 23 19 13 13 15 12 9 12 13 13 15 17 16 17 17 16 17 17 16 14 9 9 13 14 11 13 16 12 13 12 9 12 8 6 9 9 16 17 11 3 1 2 4 3 7 7 7 7 6 7 5 8 13 14 17 22 23 23 26 27 26
22 22 21 22 22 23 26 25 19 16 16 15 16 16 16 15 14 14 13 14 15 19 22 21 22 21 21 24 17 10 11 8 3 3 6 7 8 11 15 17 18 18 17 17 19 19 16 12 10 14 12 8 12 13 11 18 15 6 12 13 11 12 8 8 8 4 0 1 4 6 5 4 5 8 11 12 8 6 10 11 11 12 16 21 22 26 30 28
24 23 24 23 23 25 26 25 24 19 16 16 17 17 17 18 17 17 16 15 14 15 19 22 23 22 22 23 17 9 6 4 1 4 6 7 7 6 9 15 16 18 19 17 17 17 17 15 12 13 10 6 9 10 10 19 18 8 9 13 16 18 12 6 4 4 4 2 3 3 4 5 5 7 12 16 14 16 18 14 12 12 10 15 17 22 29 30
24 24 26 26 24 25 26 24 25 24 19 17 19 19 18 18 19 18 18 17 16 14 16 20 23 23 23 24 19 9 7 12 13 14 13 12 10 5 4 10 14 17 20 19 17 16 17 18 16 13 9 6 9 10 12 16 19 13 9 10 15 19 19 16 7 4 6 4 5 5 3 5 7 7 11 16 20 24 24 21 20 19 16 16 15 17 24 27
24 25 26 26 26 26 26 26 26 26 24 20 19 21 22 21 20 19 19 18 17 16 15 18 20 21 23 22 17 11 12 17 18 17 16 15 13 9 6 7 13 17 19 19 18 16 17 19 18 15 8 6 9 11 13 13 13 14 11 10 14 16 17 17 8 5 8 8 9 9 6 11 15 13 12 18 26 28 25 23 24 25 24 24 22 20 20 21
24 26 26 26 26 27 27 27 28 27 27 25 22 21 23 25 23 21 20 19 18 17 16 17 18 20 21 18 13 11 12 12 13 16 16 15 13 11 9 7 11 16 18 16 16 15 16 17 19 18 10 9 11 11 13 12 8 10 13 12 14 16 15 13 9 7 9 9 9 9 9 15 19 15 13 23 34 32 29 29 29 29 29 29 29 28 24 22
24 25 26 26 26 27 27 28 29 29 29 28 26 24 23 24 26 25 22 19 18 17 16 16 17 18 18 14 8 8 10 11 13 17 18 15 13 10 8 7 10 15 15 13 14 16 16 15 16 19 13 10 10 9 10 9 2 1 8 12 13 15 14 11 9 10 10 11 11 10 10 16 19 11 8 19 25 21 23 27 28 30 33 34 33 32 31 30
24 25 25 26 27 27 28 28 29 30 30 29 28 26 24 23 23 25 26 22 18 17 16 16 17 18 18 12 7 9 15 17 17 19 20 17 14 11 9 9 10 14 13 11 14 16 15 14 13 12 8 7 7 8 10 10 4 3 3 7 10 12 13 12 10 10 9 8 13 14 11 15 16 11 13 21 16 8 13 18 20 25 31 34 33 33 35 36
24 25 25 26 27 28 28 29 30 30 31 30 28 26 24 22 21 22 26 26 21 17 15 15 16 18 17 13 16 16 17 19 20 22 22 19 16 13 12 12 12 14 13 10 12 13 14 16 14 11 7 5 5 5 7 10 8 3 1 5 8 9 12 14 13 13 11 6 11 11 8 14 13 13 25 33 26 19 18 19 20 22 25 28 28 30 33 35
25 25 26 26 27 27 28 29 30 31 32 32 29 26 24 23 22 21 22 25 25 19 14 13 15 19 16 14 20 18 16 19 23 24 22 18 16 14 13 12 12 14 15 12 10 12 17 17 15 15 10 4 2 3 3 4 6 3 3 4 5 6 10 13 15 16 13 8 12 10 6 13 9 16 31 36 33 30 26 26 27 26 25 25 26 27 29 30
25 25 26 27 27 28 28 29 30 32 33 34 31 27 25 22 22 22 21 22 25 22 15 12 15 18 16 18 24 22 19 19 20 19 17 14 13 12 13 12 11 13 14 15 12 12 15 17 15 14 11 8 4 5 4 3 4 3 4 3 4 6 5 6 12 16 11 10 19 12 8 13 7 12 25 27 29 29 26 28 31 28 27 26 26 28 29 30
25 26 26 27 28 27 28 29 30 32 33 35 33 27 24 22 21 21 19 18 20 22 18 14 15 16 13 18 24 21 17 15 14 11 8 9 11 9 9 10 11 13 12 13 13 11 10 11 13 10 7 10 8 5 3 3 3 4 4 3 4 6 4 3 4 14 12 8 18 14 6 10 9 11 13 13 21 25 24 26 26 25 25 24 25 26 28 31
25 27 27 27 28 28 29 29 30 31 33 35 34 28 22 18 18 17 14 12 11 15 17 15 16 15 10 11 16 15 14 14 12 6 5 7 10 7 6 7 9 11 11 11 11 9 8 8 9 7 5 6 6 3 2 4 4 5 6 5 4 5 6 3 4 7 12 7 12 13 6 4 5 4 3 7 15 20 19 19 21 20 20 21 22 23 25 28
25 26 26 27 28 28 29 29 30 30 32 35 34 30 24 15 13 13 10 8 6 9 12 13 11 12 12 11 12 14 14 15 13 6 6 6 9 9 8 8 7 7 9 10 9 8 8 9 6 4 5 4 4 5 4 7 8 6 5 6 6 5 7 4 2 3 7 8 9 13 10 9 5 1 6 8 13 16 15 16 18 19 18 19 20 22 24 27
26 26 26 27 28 29 29 28 30 29 31 33 31 33 26 12 9 10 9 7 5 5 7 9 6 4 9 12 13 12 8 9 10 6 7 6 7 11 10 7 5 6 6 5 7 9 8 8 6 3 4 6 6 8 9 9 6 7 7 5 7 7 9 8 3 3 8 7 8 9 11 15 11 7 6 6 10 14 15 16 17 18 19 19 20 23 26 28
25 26 27 27 27 29 28 28 29 27 30 31 29 32 25 12 8 8 8 7 6 4 5 7 7 6 8 10 11 9 7 8 8 11 12 8 6 10 10 7 7 9 7 4 6 10 9 5 5 5 7 10 9 10 12 8 2 4 6 5 6 8 10 8 3 6 11 8 8 10 12 14 13 12 12 15 16 15 17 17 17 19 20 22 23 25 27 28
25 25 26 27 27 29 27 27 26 26 29 28 28 31 28 22 12 8 17 20 15 14 17 18 18 19 20 19 16 10 9 11 13 15 12 9 7 9 10 9 8 9 7 5 6 11 11 5 6 11 11 10 11 12 13 10 7 5 3 4 6 6 6 2 2 5 9 6 8 12 13 13 14 11 10 18 21 17 16 16 17 21 22 26 28 29 29 30
25 25 26 27 27 28 28 25 22 25 27 23 23 25 24 21 12 10 24 28 24 23 26 29 26 27 28 27 23 17 15 15 15 12 9 10 8 9 10 11 7 5 8 7 5 10 11 7 13 14 9 8 11 13 13 12 12 10 6 6 6 5 5 1 3 5 5 3 6 8 11 14 14 10 9 14 16 16 15 13 17 22 25 29 31 33 33 32
25 25 26 27 27 28 27 22 18 24 25 19 20 21 18 16 13 13 17 19 29 32 29 29 28 33 36 34 33 27 22 19 17 14 12 12 12 11 10 12 7 4 7 8 5 6 7 11 15 11 6 9 11 11 13 14 13 10 8 7 8 7 4 2 2 4 4 3 4 3 7 13 11 9 11 11 13 18 20 20 23 26 26 29 31 33 35 35
25 25 26 26 26 28 26 18 16 21 22 17 16 18 18 18 15 15 15 14 26 32 27 27 27 32 36 35 34 28 23 22 21 20 19 16 16 16 11 9 8 8 7 8 9 6 7 11 12 8 8 11 12 12 12 12 10 10 8 7 10 8 5 3 3 3 3 4 3 4 6 11 11 9 11 14 19 23 25 30 34 33 32 34 36 37 37 38
25 25 25 27 25 28 26 16 14 21 20 14 12 17 20 21 16 15 16 11 15 22 23 24 22 23 25 26 25 23 24 24 19 18 21 23 19 15 12 10 8 8 8 11 13 11 11 11 7 10 14 13 13 13 11 9 7 10 11 10 10 7 7 6 3 4 2 4 2 3 6 11 11 10 11 13 19 24 26 28 32 34 37 38 39 40 40 42
26 25 25 26 24 28 26 14 14 25 21 10 13 20 21 20 18 14 13 8 8 12 13 11 9 9 15 16 15 18 20 21 19 17 19 26 23 12 10 13 9 6 11 14 13 12 14 14 7 8 13 13 13 11 10 10 6 8 11 13 13 7 6 6 5 5 1 4 4 2 3 11 9 9 10 9 11 17 18 17 22 29 34 36 37 40 41 42
26 24 24 25 24 27 24 13 17 25 18 12 18 24 20 19 20 14 8 4 4 5 5 2 2 6 15 13 10 13 11 10 14 18 19 24 25 16 9 9 9 9 12 11 8 6 10 13 11 10 11 13 12 10 10 10 7 7 7 11 14 10 8 8 7 5 3 4 3 4 4 9 9 7 8 7 8 12 11 10 17 22 26 30 34 38 39 41
25 24 23 23 23 24 20 15 22 21 14 17 23 23 20 19 19 11 3 3 3 2 3 4 3 9 16 17 13 5 5 8 8 7 12 19 24 21 12 7 8 9 7 6 6 6 9 11 10 10 11 10 10 9 10 10 8 6 3 6 12 13 12 10 8 6 4 1 2 0 3 6 11 7 7 8 8 9 10 11 13 14 21 28 31 34 37 40
24 24 23 22 22 19 14 18 21 16 15 22 24 22 19 17 13 6 2 3 3 3 3 4 5 12 20 23 16 4 7 13 7 6 7 11 20 16 12 11 10 8 6 7 8 7 7 10 11 12 11 8 9 10 10 11 8 5 2 3 8 12 11 8 7 5 3 2 3 5 4 3 10 6 4 7 8 9 13 15 13 10 17 24 28 33 36 37
22 23 21 23 22 16 13 17 15 14 21 23 21 19 16 12 7 2 1 3 3 5 6 6 6 12 23 24 16 12 14 9 1 9 14 4 13 10 8 9 8 9 8 9 11 9 3 3 8 12 11 9 10 11 10 12 9 4 2 3 3 4 5 6 5 3 2 4 7 9 8 5 11 6 4 4 6 10 13 12 10 11 16 23 29 34 35 36
20 21 20 23 23 17 16 15 12 17 23 20 17 16 13 7 3 2 3 2 1 4 6 7 7 11 18 15 12 15 12 4 3 8 11 8 10 11 9 9 6 6 8 8 12 12 3 4 3 4 6 6 8 6 5 9 9 6 5 6 6 4 3 4 3 4 3 5 10 14 12 8 10 8 6 7 7 9 9 8 8 10 16 25 31 34 35 34
20 21 21 23 22 18 16 16 17 20 19 16 15 16 11 4 1 2 2 1 0 3 4 4 7 11 13 9 7 13 10 5 3 3 4 5 7 8 7 8 5 3 6 7 10 12 5 1 2 3 3 3 3 2 2 3 8 9 4 5 4 2 1 2 2 4 4 6 11 12 10 9 9 10 5 8 9 9 9 9 10 10 13 23 31 33 31 28
23 23 24 24 22 16 14 17 19 18 15 14 15 15 8 2 2 4 2 4 2 2 2 2 7 10 11 10 8 8 7 5 3 2 3 3 4 5 5 5 4 4 5 7 9 11 9 7 6 4 3 2 3 4 1 1 7 8 5 7 5 3 2 1 4 5 5 8 7 6 12 8 10 16 13 9 10 8 7 6 7 7 10 19 27 27 23 22
24 24 24 24 20 15 14 15 16 15 13 13 13 11 5 2 2 3 2 3 1 2 3 3 7 10 10 11 8 5 5 4 2 2 3 4 5 7 8 9 8 6 4 4 7 8 7 8 12 9 5 8 8 6 5 4 6 8 7 8 7 5 4 4 5 4 5 9 6 8 13 6 5 14 19 17 17 15 13 13 12 11 11 14 17 17 18 20
25 23 23 23 17 13 14 15 14 13 12 12 9 6 1 3 3 1 1 2 2 5 6 6 10 11 8 7 5 4 4 1 3 4 4 4 5 6 7 9 11 9 6 5 5 6 7 6 10 12 8 12 15 12 8 5 6 9 7 7 8 6 5 5 5 6 6 5 4 5 8 5 5 8 9 9 15 18 24 29 28 26 22 17 14 15 18 19
25 23 21 19 14 11 13 14 11 10 9 9 6 3 2 3 3 1 1 2 3 5 7 8 9 7 6 5 2 3 4 2 5 6 4 3 4 5 5 5 9 10 8 6 4 5 11 9 7 17 16 14 17 15 11 7 5 7 6 7 9 8 6 6 7 7 7 4 2 3 5 5 6 11 9 3 3 9 17 24 22 21 22 19 17 18 19 17
25 24 18 14 14 13 12 10 8 6 5 6 4 3 4 4 2 1 3 4 4 6 8 9 6 3 3 4 1 3 5 4 6 5 3 4 5 4 3 3 2 2 2 4 4 3 8 8 2 11 15 13 17 18 16 13 7 5 8 9 8 8 7 7 8 4 4 7 5 5 5 4 5 13 15 11 8 6 9 10 9 12 15 16 18 20 21 21
25 23 17 15 17 13 8 7 5 3 3 5 5 4 2 2 3 4 5 7 7 7 7 6 2 0 2 3 3 3 6 4 4 3 3 6 4 1 0 3 8 9 8 5 3 4 4 6 3 4 10 11 15 17 16 16 12 6 9 10 8 8 6 3 4 4 6 9 6 8 10 7 6 8 8 9 12 12 12 11 9 10 11 13 18 24 26 27
25 24 22 19 13 6 6 6 3 1 3 4 6 8 4 3 5 6 6 7 7 6 6 5 1 1 2 3 4 5 5 4 4 4 4 4 2 3 5 4 6 8 7 6 2 4 6 6 6 4 9 9 9 10 9 13 14 6 3 7 7 7 6 5 5 6 8 8 6 10 12 10 10 9 8 10 12 10 11 13 13 12 10 11 19 26 28 26
23 21 17 11 6 6 8 7 5 4 5 4 6 8 4 3 6 8 7 7 6 5 5 6 5 2 3 5 5 4 4 4 4 4 3 2 3 4 8 2 2 4 5 6 2 4 4 3 4 2 3 5 4 6 5 8 8 3 2 4 6 5 6 7 6 5 7 8 7 9 10 7 8 10 15 20 16 9 7 8 11 13 11 14 20 23 23 21
19 13 9 10 9 12 11 9 9 6 6 5 6 6 3 3 4 7 9 8 5 5 4 5 6 5 5 6 6 5 4 5 5 5 4 2 6 10 6 2 1 4 2 4 1 3 3 3 5 6 9 6 3 5 8 10 8 5 5 6 6 4 2 2 4 5 7 7 7 8 9 7 6 8 15 20 16 11 9 7 7 10 14 19 22 23 24 22
19 8 8 14 12 12 11 10 8 6 5 5 6 6 6 6 6 7 11 11 8 8 7 7 7 7 7 7 7 6 4 5 6 5 5 5 5 5 3 2 6 6 2 1 1 2 1 2 4 6 7 6 6 6 6 9 10 9 9 9 9 7 5 4 5 6 5 6 6 7 9 7 4 5 10 13 12 9 10 10 9 8 12 14 14 16 19 19
16 9 12 17 14 11 12 8 6 7 5 7 9 9 9 9 8 8 10 11 10 10 9 8 6 6 7 8 9 8 6 6 6 5 5 6 6 5 7 15 16 8 4 4 2 1 1 2 4 6 6 7 12 15 11 6 6 6 6 8 10 9 8 8 7 6 6 7 7 7 9 6 3 1 3 4 5 4 4 8 9 6 6 10 10 9 10 10
16 17 19 20 20 19 12 5 7 8 6 9 12 13 14 11 7 8 10 10 8 7 7 6 6 8 7 6 7 8 7 6 6 8 8 8 9 9 12 20 18 8 4 4 2 2 3 2 3 5 6 7 11 14 10 2 5 5 4 4 5 7 9 10 7 5 6 8 8 8 10 7 4 4 2 3 3 4 7 3 3 5 8 9 7 6 6 6
22 25 22 18 19 20 14 4 5 7 8 10 10 12 15 12 10 10 9 9 9 6 6 6 7 8 7 7 7 7 7 6 6 8 9 7 8 11 17 21 18 8 2 1 2 3 3 2 2 4 6 6 6 7 5 2 4 3 4 6 9 9 8 8 7 6 7 9 9 9 9 7 6 7 4 3 5 5 7 8 8 8 9 8 6 3 2 4
17 18 20 22 24 26 20 13 10 8 8 11 11 13 14 11 14 18 14 12 13 10 6 7 10 10 8 7 7 8 9 8 6 6 7 7 8 12 18 18 10 3 2 5 9 6 1 2 2 2 5 6 5 4 1 3 5 5 7 11 10 8 8 6 5 7 9 9 10 9 6 3 6 10 7 0 5 6 5 7 10 10 9 10 8 7 5 2
9 5 8 13 24 30 26 23 20 11 8 13 11 10 14 11 13 21 20 14 15 16 10 8 10 10 9 10 9 9 10 10 9 6 6 8 7 8 13 13 8 8 12 17 18 8 1 4 5 6 8 9 8 10 9 9 8 8 12 15 12 9 7 5 3 6 6 6 10 11 7 3 8 11 8 3 4 5 4 3 6 8 9 10 9 9 10 8
9 5 5 6 13 19 19 18 18 13 12 15 8 6 16 15 9 13 18 15 16 18 12 8 10 9 10 12 10 8 10 10 10 10 10 11 9 9 16 18 15 17 19 18 15 7 2 6 8 9 12 12 12 16 16 12 11 12 13 16 16 14 11 6 5 7 8 7 8 8 8 10 12 12 11 9 3 5 6 5 6 8 8 8 8 9 9 10
13 10 15 16 10 8 10 13 16 16 17 17 10 7 13 16 11 10 14 15 16 16 10 7 13 16 15 14 9 7 9 8 9 12 12 11 9 8 12 13 12 14 14 11 9 4 2 6 8 8 12 14 14 16 15 12 13 13 13 15 17 17 13 10 10 10 8 6 7 11 13 14 14 15 16 14 9 3 1 4 8 8 7 8 8 8 8 7
19 14 16 20 16 14 18 20 19 17 17 17 12 10 13 16 16 13 11 9 10 15 14 9 13 19 20 16 11 8 8 9 10 12 10 9 9 6 6 7 8 10 8 4 3 3 2 5 8 9 11 12 12 13 13 13 13 14 15 16 16 17 16 14 13 12 10 10 11 15 18 16 14 15 17 17 16 13 12 7 2 2 5 9 10 8 8 7
23 18 15 16 18 21 25 21 14 12 15 17 12 11 15 17 18 15 12 13 12 13 17 16 17 19 18 16 14 13 15 16 14 12 9 7 7 5 4 4 4 5 4 1 0 2 2 4 7 6 6 8 10 11 14 15 14 15 17 17 16 17 17 15 13 12 10 10 11 15 16 13 13 15 17 16 17 17 18 17 12 10 10 8 5 4 5 5
35 34 30 17 8 13 18 15 11 9 10 12 10 10 13 18 21 18 15 22 23 15 16 22 22 17 15 17 16 16 21 22 18 18 15 11 8 7 5 5 3 2 3 2 2 2 2 3 5 5 6 8 9 10 13 15 14 15 16 15 13 13 13 12 11 10 10 11 13 15 14 10 9 13 16 17 16 15 15 15 15 17 20 20 18 15 12 9
38 36 37 24 7 9 13 10 10 12 9 9 13 14 16 19 22 19 15 19 26 26 25 25 21 15 12 14 19 28 36 33 25 23 20 17 16 15 12 11 9 6 4 3 3 3 3 3 3 3 6 9 9 10 12 11 11 11 11 11 13 14 14 13 12 12 12 11 11 10 9 8 10 14 17 20 18 16 15 16 17 19 21 23 25 27 28 27
Wind_Direction
322 320 319 317 317 320 324 326 325 324 330 337 337 334 329 328 330 331 334 335 338 337 336 340 341 338 336 329 320 316 311 299 291 279 269 270 261 250 243 239 238 233 226 224 228 224 217 217 214 211 205 203 209 205 208 213 211 215 222 227 229 227 220 221 231 238 257 254 200 164 171 199 220 169 183 220 232 233 242 243 238 233 227 229 243 242 213 198
334 332 330 327 320 310 308 313 318 319 318 318 321 327 327 325 322 321 326 329 332 332 332 337 340 345 345 338 328 321 315 305 296 285 272 264 250 242 238 232 228 227 221 218 222 217 209 215 213 206 198 197 203 199 200 202 199 202 206 226 226 223 228 230 238 243 251 266 250 164 166 215 242 182 172 198 222 216 230 244 236 238 239 231 233 240 233 217
354 352 349 346 344 334 315 300 298 307 312 310 307 311 315 317 317 317 319 321 324 325 327 332 335 345 351 347 337 325 319 314 307 291 269 258 248 240 235 228 221 219 219 216 214 208 197 199 215 206 195 202 201 195 197 189 191 208 217 229 229 223 244 245 246 249 255 289 302 150 165 200 233 232 174 187 233 218 215 231 228 228 234 230 225 234 237 227
360 1 356 350 351 350 339 321 300 291 296 302 301 301 304 304 305 310 314 317 318 318 320 324 330 338 351 353 340 326 331 322 304 276 267 266 259 247 233 225 218 212 211 209 207 207 194 182 209 205 198 213 207 198 199 187 182 199 214 228 228 216 240 247 250 259 266 43 296 301 252 198 220 240 218 218 239 232 228 233 231 229 234 233 225 230 235 232
359 357 351 346 345 345 344 345 335 303 286 288 292 292 296 298 296 296 301 309 313 313 313 315 323 327 342 352 341 333 343 320 271 273 295 296 281 258 234 224 216 208 203 200 205 208 199 188 200 206 210 227 208 201 205 200 197 209 225 231 236 236 245 232 239 267 357 305 272 289 293 240 230 235 228 232 234 226 230 233 242 249 243 238 231 230 234 236
1 357 350 348 348 348 347 349 347 331 302 284 282 282 285 290 293 295 292 293 299 306 308 306 314 319 330 343 343 342 332 275 257 327 323 333 315 282 237 227 216 206 198 195 202 205 199 192 192 202 212 230 223 215 210 206 205 226 245 232 235 244 253 241 223 251 255 277 272 261 283 266 247 243 237 237 240 242 243 240 256 275 258 241 236 228 231 236
1 358 353 352 353 351 349 347 344 339 326 298 283 278 278 280 284 291 292 290 288 294 303 301 305 311 319 332 341 338 276 266 282 286 290 304 299 296 261 227 216 209 200 195 195 195 195 194 194 202 209 221 231 227 220 213 204 216 244 234 237 242 249 259 254 233 242 241 245 253 273 249 233 244 246 242 247 249 251 251 251 260 259 251 244 228 231 238
359 358 355 355 354 350 348 347 344 339 336 325 302 285 277 274 274 280 285 288 287 287 294 298 299 302 313 330 342 328 279 272 284 287 289 290 277 275 280 230 210 207 201 198 196 193 194 195 197 201 210 222 230 230 218 216 210 218 234 233 240 243 246 259 254 216 242 250 255 256 251 244 239 248 258 253 255 254 253 255 251 250 252 252 246 234 231 236
360 358 356 354 352 351 348 346 343 340 339 336 325 305 285 275 270 271 274 280 284 284 286 294 295 293 305 324 330 311 289 283 296 301 299 289 273 265 262 230 209 203 199 202 200 197 196 197 201 202 213 238 244 245 215 212 219 219 229 228 237 247 249 252 239 229 248 253 254 252 247 250 250 253 259 254 259 262 256 254 252 249 248 247 244 238 233 232
359 357 355 354 351 350 348 346 343 341 340 336 331 324 307 288 274 266 266 270 277 281 283 290 289 283 292 310 314 294 292 299 304 308 307 293 274 260 240 214 209 203 198 204 205 205 203 200 206 211 228 254 255 253 222 215 230 211 235 238 242 254 259 252 235 232 245 251 240 238 251 255 251 239 241 256 262 263 253 251 250 247 246 246 244 242 240 239
358 357 354 353 352 350 348 347 343 341 338 332 330 330 325 312 292 272 262 260 266 275 280 288 286 274 280 286 258 266 290 297 299 306 307 297 280 257 228 215 209 200 198 211 212 207 206 208 212 209 223 250 246 249 238 231 259 355 312 271 261 263 265 255 245 229 224 245 230 228 261 262 249 231 236 248 249 234 233 245 248 244 245 245 244 243 243 244
356 355 353 351 350 349 348 346 344 341 337 333 334 333 327 319 309 289 269 258 255 263 271 285 284 267 270 264 247 270 297 297 297 301 298 292 282 260 237 229 214 196 195 213 221 214 211 217 216 201 204 246 242 248 246 230 240 283 338 283 268 263 259 241 238 228 212 227 213 210 268 262 239 228 240 242 236 235 240 245 247 244 244 242 241 241 241 245
354 353 351 349 349 348 347 346 343 341 338 337 337 333 325 317 311 302 284 263 250 251 262 278 284 268 259 254 258 278 294 290 294 297 291 283 276 262 244 236 221 203 195 197 211 216 216 219 212 205 219 258 244 264 281 209 216 236 209 250 262 268 259 227 219 216 212 215 185 171 263 258 235 220 238 245 237 235 240 244 246 243 244 242 239 239 240 245
353 352 350 348 348 347 345 345 343 341 340 341 340 333 324 319 312 303 296 277 250 243 255 270 278 268 251 252 269 282 282 283 291 293 289 278 268 260 244 234 227 218 206 200 202 208 216 221 216 214 229 238 253 313 313 174 191 228 210 210 223 250 261 218 204 191 197 207 178 171 258 258 261 230 239 248 234 226 229 236 242 241 242 241 238 238 242 247
352 351 350 348 347 346 345 344 343 343 343 341 341 337 327 322 319 310 305 296 260 242 251 266 268 260 252 264 278 286 284 280 281 287 298 268 255 257 250 239 231 227 222 216 215 212 215 216 210 213 226 224 237 301 293 212 211 219 219 214 199 227 255 302 224 181 179 192 176 178 253 253 263 258 246 238 220 215 218 229 239 239 239 237 236 239 244 250
351 350 350 348 347 346 345 344 345 346 345 343 342 343 336 326 328 326 323 323 286 247 248 262 264 256 260 284 283 279 277 273 267 283 329 270 240 229 223 226 230 234 235 232 230 223 211 198 196 206 207 200 209 217 264 259 231 207 220 231 195 205 227 260 312 196 167 145 183 203 236 236 250 253 185 174 196 204 213 230 239 241 240 235 235 239 244 249
350 349 350 348 347 347 344 345 348 349 348 345 345 348 348 340 337 333 326 329 302 260 254 256 260 260 259 266 272 273 272 265 253 257 324 290 229 217 213 213 222 230 238 240 238 227 203 191 191 211 211 198 192 178 207 238 229 213 209 233 232 227 230 203 349 274 163 141 201 221 238 242 246 148 134 156 185 197 213 232 238 244 247 241 237 238 241 243
349 348 349 348 347 346 345 347 350 353 352 352 351 349 349 345 335 326 311 314 312 276 246 233 224 252 259 256 266 275 262 240 235 255 312 302 220 213 216 209 198 193 209 226 220 206 189 193 201 214 217 207 198 183 202 220 209 206 204 218 233 235 247 230 199 202 169 172 214 218 239 246 253 256 234 216 196 196 216 231 239 246 248 247 242 238 240 242
347 347 348 347 348 345 346 350 351 356 359 1 356 349 353 354 338 329 315 325 329 299 263 244 233 247 271 281 288 278 246 232 256 284 294 285 224 204 204 196 192 187 186 194 194 187 181 193 204 211 219 207 202 202 212 226 186 201 218 218 217 218 238 237 193 171 168 183 224 218 235 245 248 251 255 261 246 224 226 231 237 244 247 249 246 242 242 243
346 347 346 346 347 345 349 354 353 356 1 6 0 356 6 7 359 342 325 320 307 296 294 285 274 272 272 278 286 281 269 272 279 283 282 271 229 200 197 186 196 204 204 213 184 181 184 194 213 216 218 202 201 213 221 243 259 264 271 258 247 234 239 239 99 179 176 187 224 220 236 248 248 243 240 253 254 243 233 228 231 236 242 247 248 247 245 244
345 345 344 346 346 344 352 358 358 358 359 9 11 12 21 11 1 334 327 320 304 300 294 282 275 272 268 265 266 267 278 284 279 272 264 253 215 187 192 184 192 211 215 233 207 189 190 211 227 219 214 202 204 214 218 237 251 260 270 273 278 251 244 5 98 180 189 216 242 229 245 253 250 246 233 236 245 245 235 228 231 232 235 241 246 249 249 249
342 343 343 345 344 343 352 2 6 360 358 14 20 20 24 5 348 332 326 310 301 303 295 282 271 263 260 257 256 259 268 271 263 248 235 226 200 191 193 181 198 213 196 221 225 196 200 231 236 219 202 214 216 214 209 219 232 242 252 258 265 244 229 356 70 177 189 217 253 276 272 265 258 247 238 229 236 245 239 234 236 234 233 237 240 246 249 250
339 341 341 343 343 343 351 6 8 356 1 22 19 8 5 352 345 334 318 294 295 297 287 278 269 261 257 255 256 254 250 251 251 241 226 213 199 207 209 181 205 219 191 202 209 203 214 234 235 215 214 220 220 222 210 211 218 222 228 233 247 242 216 256 259 205 220 241 264 338 301 277 267 251 245 234 236 247 243 238 240 236 234 237 239 242 244 246
336 338 338 341 343 340 349 9 4 355 8 27 4 351 351 346 350 341 319 294 286 290 286 281 271 266 267 267 263 247 235 240 247 245 227 210 199 203 215 209 209 217 211 208 211 219 230 234 213 197 214 220 220 224 216 211 215 217 218 225 239 230 210 233 210 160 273 297 288 342 309 281 261 237 243 234 231 244 241 237 242 239 235 238 240 241 241 243
334 336 337 339 341 339 348 8 352 351 7 14 339 341 346 345 349 343 322 298 274 288 301 292 256 280 305 291 264 241 238 243 244 247 232 213 206 200 211 218 215 224 223 217 220 229 236 241 235 209 212 218 223 222 211 205 216 228 219 223 232 218 195 202 152 140 284 281 219 165 272 282 264 214 233 237 216 237 238 229 238 238 235 235 236 239 240 241
332 333 334 338 341 341 348 1 343 346 357 348 334 338 343 345 343 339 321 289 270 291 348 13 172 11 359 344 297 250 243 269 259 250 241 225 218 214 217 216 213 228 226 224 230 234 239 237 238 240 221 214 223 223 208 197 214 241 216 213 223 215 200 189 164 166 220 252 221 160 198 272 279 219 223 227 206 235 239 224 235 235 233 232 232 236 237 240
335 331 331 337 342 349 354 341 337 346 347 337 336 336 339 344 341 336 311 262 276 307 24 42 47 25 15 4 347 246 220 344 328 271 248 228 218 218 226 225 216 225 217 223 236 222 231 225 223 243 232 214 220 219 207 197 213 243 224 205 207 206 210 193 170 185 212 264 339 230 189 266 278 251 207 198 205 248 250 237 238 229 227 230 232 235 237 239
336 330 331 338 343 357 351 322 332 346 328 327 335 332 336 345 340 334 302 282 317 353 14 23 18 12 5 360 1 337 322 347 354 348 329 218 209 218 228 231 236 240 211 211 236 233 225 213 203 219 225 213 214 218 208 201 214 232 234 225 194 195 202 181 172 199 225 256 251 234 190 240 272 261 163 186 203 237 246 238 239 229 223 226 230 235 238 242
335 331 333 340 344 351 332 322 338 329 314 326 334 329 335 348 341 323 256 281 349 10 359 9 14 359 355 355 360 354 344 351 317 332 344 260 216 228 239 246 260 267 248 228 240 247 244 214 208 212 216 213 217 220 207 205 215 199 138 58 74 163 168 152 167 177 185 226 234 223 187 203 268 262 151 187 209 221 239 238 233 233 226 225 230 235 239 243
331 333 333 337 341 340 329 334 334 313 321 335 332 330 338 340 326 267 258 253 55 12 351 10 18 354 354 357 347 342 340 321 275 314 329 312 269 263 269 274 276 277 272 254 248 251 268 14 313 241 226 231 233 229 219 214 195 132 100 79 55 47 103 124 155 152 169 229 238 227 191 179 260 266 182 200 225 210 227 245 229 227 228 228 232 235 238 240
324 330 330 332 335 335 328 325 317 318 336 342 331 339 338 304 269 240 259 276 35 4 354 8 10 354 357 7 326 322 324 289 285 312 304 301 279 268 273 269 251 247 264 254 255 258 250 304 304 283 287 307 273 240 316 257 161 131 117 132 92 17 53 66 178 180 189 230 242 226 183 170 239 261 190 191 232 210 197 230 227 218 227 231 235 238 239 238
318 325 328 328 328 328 317 312 320 330 343 343 336 340 332 281 241 222 254 348 334 21 38 19 1 350 342 339 309 294 301 284 244 201 234 248 242 242 233 231 227 235 245 235 243 251 243 226 217 243 271 265 242 205 222 272 159 155 160 158 164 204 179 155 201 201 208 237 253 169 156 176 234 254 246 229 259 252 203 215 214 200 216 230 237 240 237 229
315 322 324 323 322 327 320 314 327 332 337 346 337 326 314 249 262 216 238 334 342 43 37 23 349 342 332 324 312 294 290 278 239 223 258 253 246 241 224 222 233 247 256 239 240 247 245 221 205 216 231 207 211 207 196 199 185 182 169 171 192 191 188 205 195 204 223 240 255 155 164 196 237 253 256 243 249 257 255 263 261 245 233 231 235 233 226 223
312 317 319 316 318 333 325 309 317 327 335 346 326 303 279 232 263 325 294 305 342 354 6 10 340 326 315 295 291 331 319 279 43 360 316 273 256 253 233 221 221 233 260 265 250 244 254 243 193 191 194 189 202 217 210 183 188 200 183 186 207 194 199 209 187 208 220 237 271 176 184 208 206 239 259 231 226 233 244 254 258 258 254 243 233 224 222 225
309 314 316 312 313 319 308 298 311 331 339 337 313 266 218 246 262 311 330 347 353 340 344 342 324 303 294 281 243 51 33 16 5 346 315 300 289 285 280 247 221 223 240 248 247 235 249 261 191 190 197 185 195 214 207 182 193 208 196 204 212 204 215 231 223 218 210 224 247 187 216 230 239 268 281 273 200 201 229 246 251 257 253 233 218 218 222 226
306 312 308 301 306 303 292 296 319 340 336 322 299 240 236 258 293 350 358 4 350 339 333 321 307 271 302 325 272 63 43 349 323 324 309 314 298 276 290 331 333 299 299 267 270 275 247 258 193 193 208 197 195 202 197 193 194 182 200 213 211 214 230 239 243 232 200 227 212 164 217 258 289 279 266 251 245 217 217 234 237 240 232 213 208 215 222 230
304 308 296 288 302 298 277 292 319 350 327 297 260 247 248 264 309 321 332 337 328 327 322 315 347 167 290 324 284 335 16 351 328 355 351 329 310 256 26 24 42 45 33 15 306 336 329 293 315 206 223 226 212 209 205 206 204 187 202 201 193 226 246 239 244 233 210 230 217 178 196 207 222 256 259 233 233 233 223 219 222 221 213 212 219 223 228 235
299 301 288 286 294 263 242 279 289 235 279 269 252 260 260 247 277 291 305 318 316 319 310 289 260 181 263 292 290 324 346 339 355 7 336 308 246 98 53 7 45 63 49 38 353 334 2 316 287 222 218 232 220 214 223 220 218 222 219 188 181 216 224 202 225 235 222 231 229 205 202 198 207 231 260 247 232 226 217 213 217 218 211 216 226 231 233 235
294 292 279 269 253 243 264 265 223 219 245 238 249 262 266 266 276 283 289 300 301 293 284 272 265 271 305 301 295 314 308 292 320 320 301 272 244 356 19 17 66 57 53 53 26 308 355 308 283 329 286 266 216 202 217 223 226 268 306 220 211 219 209 204 219 231 232 236 234 225 218 207 206 221 245 250 244 237 238 228 216 213 218 221 222 228 232 228
284 281 248 221 250 282 273 234 213 222 235 230 236 250 278 306 288 279 278 281 280 268 265 276 277 275 288 294 291 296 286 273 282 270 262 282 293 311 333 136 117 1 45 99 88 295 314 268 276 325 331 315 246 205 199 201 206 207 220 230 228 226 217 210 233 231 233 239 234 232 233 223 205 213 235 248 251 247 254 253 219 208 218 222 220 224 229 227
275 265 219 223 261 276 236 211 212 216 229 234 228 236 250 253 254 267 271 266 259 255 255 260 265 269 276 282 282 281 274 269 270 260 260 266 267 273 282 318 332 347 14 122 333 321 296 267 283 300 311 302 288 288 256 224 218 206 204 213 214 215 225 237 239 226 223 240 239 242 248 235 199 217 243 256 261 253 243 234 221 211 210 205 201 211 221 223
257 246 244 242 258 249 211 206 214 205 219 230 224 230 233 232 240 248 253 254 250 246 249 251 248 253 261 260 263 268 268 266 262 260 264 256 245 244 284 304 310 329 350 312 296 307 266 253 280 279 274 281 292 297 293 289 285 260 231 219 214 208 208 218 224 212 213 232 241 257 263 245 205 240 278 291 292 298 278 234 214 192 153 143 142 159 182 197
235 247 256 249 251 239 214 209 221 211 224 228 225 227 224 227 234 229 232 238 237 234 236 237 231 233 239 242 248 254 257 257 247 249 264 266 259 261 276 288 294 303 320 301 274 282 287 273 272 282 282 284 286 278 267 347 14 307 285 288 264 240 224 224 225 221 224 221 218 238 250 246 260 289 330 7 340 7 24 32 151 118 92 102 121 137 153 168
246 254 249 235 236 224 207 209 224 220 228 225 224 223 221 226 227 222 226 221 214 217 221 221 223 228 230 230 235 239 245 248 229 233 255 267 269 282 289 292 296 303 313 325 327 317 303 305 324 323 311 303 295 269 237 91 34 343 330 329 322 322 302 268 246 241 243 228 219 232 237 234 255 268 285 25 41 43 37 44 71 87 88 88 83 83 153 204
261 260 240 222 214 205 207 218 215 223 235 226 225 218 215 223 221 219 222 218 213 211 212 223 226 229 235 238 240 238 237 242 238 235 250 262 272 283 284 287 296 312 281 290 302 308 268 274 304 318 293 284 283 274 269 14 353 336 322 307 312 345 346 317 276 251 237 222 224 234 244 286 284 267 265 86 83 67 48 52 66 77 86 86 80 77 81 125
246 241 230 208 202 206 219 224 217 222 232 229 235 212 203 214 218 214 216 221 224 220 217 225 223 228 237 234 239 242 235 240 246 248 252 254 260 264 266 271 279 281 284 288 290 291 193 241 243 226 247 260 269 280 301 330 320 302 305 303 305 317 318 320 297 274 272 254 236 226 215 266 283 275 273 241 154 124 117 100 83 94 103 98 90 87 83 80
230 206 210 196 203 214 225 222 216 224 224 221 227 190 201 212 212 208 208 210 219 218 220 227 216 221 229 223 229 239 231 234 240 244 251 249 246 254 263 270 275 273 277 278 272 260 221 250 236 222 240 251 260 271 283 298 294 288 292 292 292 295 296 298 281 285 312 308 261 239 221 223 239 252 263 269 244 145 145 148 128 127 135 130 117 109 102 91
239 236 227 225 228 226 227 217 210 219 225 221 216 198 206 210 204 203 203 205 209 205 205 221 216 220 229 221 220 229 224 228 234 234 240 242 239 252 260 262 259 259 264 265 253 228 221 250 239 234 249 252 253 263 270 276 277 277 278 278 282 287 287 289 282 280 293 287 281 298 287 257 242 240 245 257 264 250 145 130 132 141 158 159 150 146 143 127
244 249 236 226 227 237 244 233 213 213 224 223 218 209 208 208 208 207 198 197 211 205 202 211 211 216 226 223 216 224 221 219 226 227 229 233 232 235 255 264 259 254 257 262 245 199 198 254 254 251 254 254 256 265 272 275 275 277 279 276 279 283 281 280 278 273 268 263 273 289 289 279 268 255 247 252 263 280 297 295 244 165 179 174 166 163 159 147
251 255 249 228 225 240 250 244 223 216 221 220 217 208 207 213 214 210 198 195 208 207 202 213 218 214 218 219 214 224 227 221 222 224 216 215 218 214 233 247 248 255 262 284 251 194 190 263 277 283 277 269 271 277 278 276 272 270 271 269 268 273 275 272 269 266 265 269 275 278 282 288 284 273 268 267 272 284 291 287 286 293 284 260 234 214 186 160
266 264 261 253 229 233 245 244 231 231 226 215 213 208 210 217 215 214 212 207 210 209 199 208 218 215 214 219 217 225 232 226 222 221 217 213 215 212 218 217 201 238 264 250 242 221 199 264 294 310 295 278 277 277 275 277 274 264 262 267 268 267 268 263 257 254 259 272 283 283 281 285 290 291 290 285 279 276 275 279 287 288 288 293 296 291 281 274
274 271 265 258 242 219 231 237 232 238 237 210 208 214 218 219 213 214 224 214 210 217 217 210 211 212 212 216 219 227 232 229 225 224 225 228 229 227 231 235 231 233 238 239 246 230 215 250 281 275 274 280 279 275 278 285 283 265 251 251 255 256 260 261 259 256 252 252 262 268 267 283 305 309 300 293 288 278 268 267 272 275 276 278 282 285 286 286
Height
1520 1519 1518 1518 1517 1516 1515 1514 1513 1512 1511 1509 1508 1507 1506 1506 1505 1504 1502 1501 1500 1498 1496 1494 1492 1490 1488 1487 1485 1484 1482 1480 1480 1479 1478 1477 1478 1478 1479 1480 1481 1482 1483 1484 1485 1487 1488 1489 1491 1493 1495 1496 1496 1496 1497 1498 1500 1501 1500 1501 1499 1495 1492 1488 1485 1483 1481 1479 1479 1480 1480 1482 1482 1483 1483 1485 1486 1486 1487 1487 1487 1488 1488 1490 1489 1489 1489 1489
1519 1517 1516 1515 1515 1514 1514 1513 1512 1511 1510 1508 1507 1506 1505 1505 1504 1503 1502 1500 1499 1497 1496 1494 1492 1490 1488 1486 1485 1483 1481 1480 1478 1477 1476 1476 1476 1476 1477 1478 1479 1480 1482 1483 1484 1486 1487 1489 1491 1492 1494 1494 1494 1495 1495 1496 1497 1497 1497 1497 1493 1489 1486 1483 1482 1480 1479 1478 1477 1478 1480 1481 1481 1481 1483 1484 1485 1485 1486 1486 1486 1487 1487 1489 1488 1487 1489 1489
1518 1517 1515 1514 1513 1512 1511 1510 1510 1509 1508 1507 1506 1505 1504 1503 1502 1501 1501 1500 1498 1497 1495 1493 1492 1490 1488 1486 1484 1483 1481 1479 1477 1475 1474 1473 1474 1474 1475 1476 1477 1479 1480 1482 1483 1485 1486 1489 1490 1491 1492 1493 1493 1493 1493 1494 1494 1493 1494 1491 1486 1485 1484 1481 1480 1478 1478 1477 1476 1478 1479 1480 1480 1481 1482 1483 1484 1484 1484 1484 1484 1484 1485 1486 1486 1486 1486 1486
1518 1517 1515 1513 1512 1510 1509 1508 1507 1506 1506 1505 1504 1504 1503 1502 1501 1499 1499 1498 1497 1496 1494 1493 1491 1490 1488 1486 1485 1482 1481 1479 1476 1473 1472 1472 1473 1473 1473 1474 1476 1477 1479 1480 1482 1483 1485 1488 1489 1490 1491 1491 1491 1492 1491 1490 1490 1490 1488 1484 1482 1484 1482 1479 1479 1477 1476 1477 1477 1478 1479 1480 1480 1481 1481 1482 1483 1482 1481 1481 1481 1481 1482 1483 1485 1484 1483 1484
1518 1516 1514 1513 1511 1509 1507 1506 1505 1504 1503 1503 1502 1501 1501 1500 1499 1498 1497 1496 1496 1495 1493 1492 1490 1489 1488 1487 1485 1483 1482 1480 1474 1472 1473 1472 1472 1472 1472 1473 1474 1476 1478 1479 1480 1482 1484 1486 1488 1489 1490 1489 1489 1489 1488 1487 1488 1486 1481 1479 1481 1481 1479 1477 1477 1476 1476 1476 1477 1478 1478 1478 1479 1479 1479 1480 1480 1479 1478 1478 1478 1479 1479 1480 1482 1482 1481 1481
1518 1516 1514 1512 1510 1508 1507 1505 1503 1502 1501 1500 1500 1499 1498 1498 1497 1496 1495 1494 1494 1493 1492 1491 1489 1488 1487 1487 1485 1483 1484 1480 1473 1473 1473 1473 1472 1471 1471 1472 1473 1475 1476 1477 1479 1480 1482 1484 1486 1487 1487 1487 1486 1485 1484 1485 1486 1483 1478 1478 1479 1479 1477 1476 1476 1475 1475 1476 1476 1477 1476 1477 1478 1477 1477 1477 1476 1475 1476 1476 1477 1477 1478 1478 1479 1480 1478 1478
1518 1516 1513 1511 1510 1508 1506 1504 1502 1500 1499 1498 1497 1496 1495 1495 1494 1494 1493 1492 1492 1491 1491 1490 1488 1487 1486 1485 1484 1484 1484 1478 1473 1474 1473 1473 1473 1472 1472 1472 1473 1474 1475 1476 1477 1478 1480 1482 1483 1484 1485 1485 1484 1482 1483 1483 1484 1482 1478 1477 1477 1477 1476 1475 1475 1474 1475 1475 1475 1476 1475 1476 1477 1475 1474 1473 1472 1472 1473 1474 1475 1475 1476 1477 1477 1478 1477 1476
1518 1516 1513 1512 1509 1507 1505 1503 1501 1499 1497 1496 1495 1494 1492 1492 1491 1491 1490 1490 1489 1489 1489 1488 1487 1485 1484 1484 1483 1483 1481 1476 1473 1473 1473 1473 1473 1472 1472 1472 1472 1473 1474 1475 1476 1477 1478 1479 1481 1483 1484 1483 1482 1481 1481 1482 1481 1478 1477 1476 1477 1476 1475 1475 1475 1474 1474 1474 1474 1474 1474 1474 1474 1473 1471 1469 1469 1469 1471 1471 1472 1472 1473 1474 1475 1476 1475 1475
1518 1516 1514 1512 1509 1507 1505 1502 1500 1498 1496 1494 1493 1491 1490 1489 1488 1488 1487 1487 1487 1487 1486 1486 1486 1484 1484 1484 1484 1482 1478 1475 1474 1473 1473 1473 1472 1472 1472 1472 1472 1473 1473 1475 1476 1477 1477 1477 1479 1480 1481 1480 1481 1479 1479 1480 1478 1474 1474 1475 1475 1474 1473 1473 1472 1473 1473 1473 1473 1473 1472 1470 1471 1472 1467 1464 1465 1465 1467 1467 1467 1469 1470 1470 1471 1472 1473 1473
1518 1516 1514 1511 1509 1507 1504 1502 1500 1497 1495 1493 1491 1489 1488 1486 1486 1485 1485 1484 1484 1484 1484 1485 1484 1483 1483 1482 1484 1481 1475 1474 1474 1472 1472 1472 1471 1471 1472 1472 1472 1472 1473 1474 1475 1476 1476 1477 1478 1479 1479 1479 1479 1478 1476 1477 1475 1473 1474 1474 1473 1472 1471 1471 1470 1471 1472 1471 1472 1472 1469 1467 1468 1469 1463 1460 1461 1461 1462 1462 1463 1465 1465 1465 1467 1468 1469 1470
1518 1516 1514 1511 1509 1506 1504 1502 1499 1496 1494 1491 1489 1487 1485 1483 1482 1482 1482 1482 1482 1482 1482 1483 1482 1481 1481 1481 1481 1478 1473 1473 1473 1472 1471 1471 1471 1471 1471 1471 1471 1471 1472 1473 1474 1475 1475 1476 1476 1477 1478 1478 1477 1477 1475 1474 1473 1473 1474 1473 1472 1471 1469 1469 1469 1470 1471 1470 1469 1470 1469 1465 1466 1464 1457 1458 1460 1458 1459 1458 1459 1460 1460 1461 1463 1464 1465 1465
1517 1515 1513 1511 1508 1506 1503 1501 1498 1496 1493 1490 1488 1485 1483 1481 1479 1478 1478 1478 1479 1480 1480 1481 1480 1479 1479 1478 1476 1473 1471 1471 1471 1470 1470 1469 1469 1469 1469 1470 1470 1471 1471 1472 1473 1473 1474 1474 1474 1475 1476 1476 1476 1476 1474 1473 1474 1474 1474 1474 1471 1470 1467 1465 1467 1468 1469 1469 1467 1471 1469 1461 1459 1456 1452 1455 1456 1456 1456 1455 1456 1456 1455 1457 1458 1460 1460 1460
1517 1515 1513 1510 1508 1505 1503 1500 1497 1495 1491 1489 1486 1483 1481 1479 1477 1476 1475 1475 1476 1477 1478 1478 1478 1477 1477 1473 1469 1470 1471 1470 1469 1468 1467 1467 1467 1467 1468 1469 1469 1470 1470 1470 1471 1471 1472 1472 1473 1473 1474 1475 1475 1475 1474 1472 1474 1474 1474 1474 1473 1472 1465 1459 1463 1465 1466 1466 1465 1472 1467 1450 1447 1449 1447 1449 1451 1452 1453 1452 1453 1453 1453 1454 1455 1456 1456 1456
1517 1515 1513 1510 1507 1505 1502 1499 1497 1494 1490 1487 1485 1482 1479 1477 1475 1473 1472 1471 1472 1474 1476 1476 1476 1476 1474 1467 1466 1469 1470 1469 1467 1465 1465 1465 1465 1466 1466 1467 1468 1469 1469 1469 1469 1469 1470 1471 1472 1473 1473 1473 1473 1474 1473 1473 1474 1473 1473 1473 1474 1472 1461 1453 1457 1459 1463 1465 1463 1471 1465 1446 1443 1445 1443 1443 1445 1448 1449 1448 1448 1449 1450 1451 1451 1452 1452 1453
1517 1514 1512 1509 1507 1504 1501 1498 1496 1492 1489 1486 1483 1480 1477 1475 1473 1471 1470 1468 1469 1472 1473 1474 1474 1474 1471 1465 1464 1466 1466 1466 1465 1464 1463 1463 1464 1465 1465 1466 1467 1468 1469 1469 1468 1469 1469 1470 1471 1472 1472 1472 1473 1474 1473 1472 1471 1470 1471 1471 1471 1470 1461 1453 1453 1454 1459 1462 1462 1467 1462 1447 1443 1442 1440 1440 1442 1444 1444 1444 1445 1446 1447 1448 1448 1449 1449 1449
1516 1514 1512 1509 1506 1503 1501 1498 1495 1492 1489 1485 1482 1479 1476 1474 1472 1470 1469 1467 1468 1470 1472 1472 1472 1472 1470 1464 1463 1463 1463 1463 1463 1463 1462 1462 1463 1464 1464 1464 1465 1466 1467 1468 1468 1468 1469 1469 1470 1471 1471 1471 1472 1474 1475 1474 1470 1467 1467 1466 1465 1467 1462 1455 1454 1453 1454 1459 1461 1461 1454 1444 1440 1439 1438 1439 1440 1442 1443 1443 1443 1443 1444 1445 1445 1445 1445 1445
1516 1514 1511 1509 1506 1503 1500 1497 1495 1491 1488 1485 1481 1478 1475 1473 1472 1471 1469 1468 1468 1468 1471 1471 1470 1471 1468 1462 1462 1461 1461 1461 1462 1462 1461 1461 1462 1462 1463 1463 1464 1465 1466 1467 1468 1467 1468 1468 1469 1469 1469 1469 1469 1472 1477 1475 1468 1463 1463 1463 1460 1459 1458 1455 1455 1454 1455 1458 1459 1458 1451 1442 1439 1438 1438 1439 1440 1441 1441 1441 1441 1441 1441 1442 1443 1443 1442 1442
1516 1513 1511 1509 1506 1503 1500 1497 1494 1491 1488 1485 1481 1477 1475 1473 1472 1471 1469 1468 1468 1468 1469 1469 1470 1472 1464 1459 1461 1460 1459 1460 1460 1461 1461 1461 1461 1461 1462 1463 1464 1464 1464 1466 1466 1466 1468 1467 1467 1468 1467 1467 1465 1466 1467 1461 1457 1459 1459 1461 1460 1456 1453 1451 1450 1451 1454 1457 1456 1457 1453 1443 1440 1439 1438 1439 1439 1439 1439 1439 1438 1438 1439 1439 1439 1439 1439 1439
1516 1513 1511 1508 1506 1503 1500 1497 1494 1491 1488 1484 1482 1478 1474 1472 1471 1470 1470 1470 1470 1469 1469 1467 1468 1468 1461 1457 1460 1460 1459 1460 1460 1460 1460 1460 1461 1461 1461 1463 1463 1463 1464 1465 1464 1465 1466 1466 1467 1466 1461 1458 1458 1457 1455 1450 1449 1453 1452 1454 1455 1453 1449 1445 1446 1448 1451 1455 1456 1454 1449 1443 1441 1440 1438 1437 1438 1438 1436 1436 1437 1436 1436 1436 1435 1435 1435 1435
1516 1513 1511 1508 1505 1503 1500 1497 1494 1492 1489 1485 1483 1478 1472 1472 1473 1471 1469 1470 1471 1470 1468 1466 1466 1463 1459 1457 1458 1459 1458 1458 1458 1458 1459 1460 1460 1460 1461 1462 1463 1463 1463 1462 1463 1462 1464 1466 1462 1456 1450 1451 1454 1454 1453 1451 1449 1450 1451 1451 1450 1448 1445 1443 1447 1449 1448 1451 1451 1448 1445 1441 1438 1437 1437 1436 1435 1434 1432 1434 1434 1433 1433 1432 1431 1430 1430 1430
1515 1513 1510 1508 1505 1503 1499 1497 1495 1493 1490 1488 1485 1481 1480 1482 1482 1479 1473 1466 1465 1468 1466 1463 1463 1460 1457 1457 1457 1458 1458 1457 1457 1457 1457 1458 1460 1460 1460 1461 1462 1463 1461 1460 1460 1459 1462 1462 1451 1445 1447 1450 1451 1450 1452 1453 1451 1450 1451 1451 1450 1448 1445 1444 1448 1448 1449 1450 1446 1443 1442 1437 1433 1434 1433 1433 1431 1427 1427 1430 1430 1429 1430 1428 1426 1426 1425 1426
1515 1513 1510 1508 1505 1502 1499 1497 1495 1494 1492 1490 1488 1487 1489 1490 1489 1487 1482 1470 1459 1461 1462 1458 1458 1455 1453 1454 1454 1456 1459 1455 1454 1455 1454 1456 1459 1459 1458 1458 1459 1459 1458 1459 1459 1459 1461 1453 1442 1443 1448 1448 1447 1447 1449 1450 1450 1452 1451 1451 1450 1445 1445 1448 1449 1449 1449 1450 1445 1442 1441 1433 1429 1431 1428 1428 1425 1420 1422 1425 1424 1424 1424 1423 1423 1422 1421 1422
1515 1512 1510 1508 1505 1502 1500 1498 1496 1495 1493 1491 1491 1491 1491 1491 1490 1488 1487 1478 1460 1453 1454 1451 1450 1449 1448 1450 1451 1455 1456 1451 1450 1451 1452 1453 1455 1456 1456 1456 1457 1455 1455 1456 1456 1457 1456 1445 1439 1445 1446 1444 1444 1443 1444 1446 1448 1449 1449 1450 1446 1442 1445 1447 1448 1451 1450 1448 1446 1446 1443 1432 1425 1427 1423 1422 1420 1415 1417 1418 1416 1418 1418 1417 1417 1417 1417 1417
1515 1512 1510 1507 1505 1502 1499 1498 1497 1496 1494 1492 1493 1493 1492 1491 1490 1488 1487 1481 1464 1449 1446 1445 1445 1448 1448 1449 1450 1451 1450 1447 1448 1449 1449 1450 1451 1454 1454 1453 1454 1453 1452 1451 1450 1450 1446 1438 1438 1441 1441 1441 1441 1440 1440 1443 1445 1444 1444 1445 1441 1441 1445 1443 1446 1452 1450 1448 1447 1447 1445 1426 1414 1419 1416 1413 1415 1410 1409 1411 1409 1410 1410 1411 1412 1411 1412 1411
1514 1512 1510 1507 1505 1501 1499 1498 1497 1495 1494 1494 1494 1492 1492 1490 1489 1489 1486 1482 1469 1450 1442 1444 1446 1449 1449 1447 1449 1449 1447 1447 1447 1448 1448 1447 1449 1451 1450 1450 1451 1451 1449 1446 1447 1445 1438 1435 1437 1438 1438 1438 1438 1438 1437 1438 1441 1441 1439 1437 1437 1440 1442 1442 1446 1450 1449 1448 1445 1445 1446 1421 1399 1406 1407 1405 1411 1405 1402 1406 1403 1402 1404 1405 1406 1405 1406 1406
1513 1511 1509 1507 1505 1501 1498 1498 1497 1496 1494 1494 1494 1491 1491 1490 1488 1488 1486 1483 1471 1451 1444 1446 1447 1449 1449 1447 1448 1448 1449 1447 1444 1446 1446 1445 1447 1448 1448 1448 1447 1446 1445 1444 1445 1440 1434 1434 1437 1436 1436 1436 1436 1435 1433 1435 1440 1439 1433 1431 1435 1438 1440 1441 1443 1445 1445 1444 1441 1441 1444 1425 1399 1397 1400 1400 1404 1401 1400 1402 1397 1396 1399 1399 1399 1399 1401 1401
1512 1510 1509 1507 1504 1501 1499 1498 1497 1496 1494 1494 1492 1490 1490 1488 1487 1488 1485 1481 1467 1450 1448 1450 1449 1451 1450 1449 1448 1448 1451 1448 1443 1444 1444 1444 1445 1446 1446 1444 1442 1441 1440 1444 1443 1435 1429 1431 1435 1435 1433 1434 1434 1432 1429 1432 1437 1435 1429 1428 1432 1434 1437 1439 1439 1441 1440 1438 1440 1439 1440 1435 1411 1394 1395 1396 1398 1399 1398 1396 1392 1392 1393 1393 1394 1394 1395 1395
1512 1509 1508 1506 1504 1502 1501 1500 1498 1496 1496 1494 1490 1490 1489 1487 1488 1487 1487 1482 1463 1449 1450 1452 1451 1452 1451 1451 1450 1449 1450 1447 1445 1444 1442 1443 1444 1444 1443 1440 1439 1438 1437 1442 1439 1429 1426 1428 1432 1432 1431 1430 1428 1427 1427 1430 1433 1431 1428 1428 1428 1429 1433 1436 1437 1440 1439 1440 1445 1439 1437 1440 1416 1390 1392 1394 1395 1396 1391 1388 1388 1388 1389 1389 1389 1389 1389 1389
1511 1508 1507 1505 1503 1503 1502 1500 1498 1496 1496 1493 1490 1489 1487 1488 1488 1485 1488 1484 1462 1450 1453 1453 1453 1455 1453 1451 1450 1449 1450 1448 1448 1446 1443 1444 1443 1442 1442 1439 1439 1438 1436 1438 1433 1426 1426 1427 1427 1427 1426 1425 1423 1423 1424 1427 1429 1428 1428 1428 1427 1428 1431 1435 1439 1441 1442 1445 1445 1436 1434 1438 1413 1385 1390 1395 1392 1391 1384 1383 1386 1384 1384 1385 1384 1384 1384 1384
1510 1507 1506 1504 1502 1501 1500 1499 1499 1497 1494 1492 1490 1488 1487 1488 1486 1485 1489 1480 1460 1455 1457 1455 1457 1459 1458 1455 1452 1450 1450 1450 1449 1446 1444 1444 1443 1442 1441 1439 1440 1440 1437 1436 1431 1426 1426 1427 1426 1425 1424 1422 1421 1422 1423 1423 1425 1426 1429 1429 1431 1434 1433 1436 1440 1440 1447 1449 1440 1429 1428 1435 1415 1383 1382 1389 1382 1380 1381 1380 1381 1380 1380 1379 1378 1378 1379 1380
1509 1507 1504 1503 1502 1500 1499 1498 1498 1495 1493 1492 1489 1487 1486 1485 1484 1486 1483 1467 1457 1460 1461 1460 1462 1461 1461 1462 1460 1454 1450 1449 1448 1447 1446 1443 1443 1443 1442 1441 1440 1440 1439 1437 1431 1426 1425 1428 1427 1425 1424 1423 1422 1423 1423 1422 1422 1425 1429 1430 1436 1440 1438 1443 1443 1441 1452 1446 1427 1422 1425 1434 1422 1384 1372 1377 1370 1370 1375 1374 1374 1375 1375 1374 1373 1374 1375 1377
1507 1505 1503 1502 1501 1500 1499 1497 1495 1494 1493 1491 1489 1488 1487 1486 1484 1481 1471 1457 1459 1466 1465 1465 1466 1464 1463 1464 1462 1455 1451 1449 1447 1447 1447 1443 1442 1441 1441 1441 1439 1439 1438 1434 1431 1425 1422 1424 1425 1425 1424 1424 1424 1424 1424 1425 1422 1423 1427 1428 1436 1441 1444 1453 1447 1442 1448 1433 1417 1421 1423 1427 1421 1387 1369 1373 1369 1368 1369 1368 1369 1371 1371 1371 1370 1371 1373 1374
1505 1504 1502 1501 1500 1499 1498 1496 1495 1494 1493 1491 1490 1488 1488 1490 1483 1472 1465 1461 1464 1467 1466 1467 1467 1466 1467 1464 1458 1454 1452 1449 1447 1447 1446 1444 1443 1439 1437 1437 1436 1439 1436 1429 1428 1425 1419 1418 1420 1424 1424 1421 1422 1422 1422 1423 1422 1422 1423 1425 1431 1434 1444 1453 1444 1438 1440 1424 1415 1422 1419 1419 1412 1383 1367 1370 1370 1369 1366 1366 1367 1367 1368 1369 1368 1369 1370 1371
1502 1502 1501 1499 1498 1498 1496 1496 1494 1493 1492 1491 1491 1489 1491 1492 1479 1466 1467 1467 1466 1465 1466 1468 1468 1467 1467 1463 1459 1456 1453 1449 1446 1449 1448 1445 1443 1439 1434 1434 1433 1436 1436 1432 1428 1424 1420 1415 1412 1417 1417 1414 1415 1415 1415 1417 1419 1418 1415 1419 1422 1419 1428 1436 1429 1427 1427 1419 1420 1425 1422 1416 1398 1370 1358 1360 1362 1365 1364 1362 1364 1364 1365 1366 1366 1367 1367 1368
1500 1499 1499 1498 1497 1497 1495 1495 1494 1493 1493 1491 1490 1491 1492 1488 1475 1468 1470 1470 1468 1468 1468 1470 1470 1468 1466 1460 1457 1458 1459 1455 1449 1450 1449 1445 1445 1442 1436 1434 1431 1431 1434 1432 1423 1417 1417 1409 1401 1403 1403 1403 1407 1408 1409 1413 1416 1416 1413 1415 1416 1409 1410 1412 1408 1407 1409 1411 1417 1421 1416 1402 1381 1361 1354 1357 1359 1360 1362 1360 1361 1363 1362 1363 1364 1363 1364 1365
1497 1496 1496 1495 1495 1495 1494 1493 1492 1492 1492 1491 1492 1492 1487 1480 1473 1471 1471 1469 1471 1471 1471 1471 1469 1468 1467 1461 1458 1459 1461 1459 1453 1452 1450 1445 1444 1441 1438 1438 1437 1436 1437 1434 1424 1418 1415 1404 1396 1400 1399 1397 1401 1401 1402 1406 1408 1410 1411 1411 1408 1404 1403 1404 1403 1398 1399 1403 1400 1401 1404 1396 1383 1365 1352 1356 1360 1359 1361 1361 1360 1361 1359 1360 1360 1359 1361 1361
1494 1493 1493 1492 1493 1493 1492 1492 1492 1492 1492 1492 1493 1489 1481 1476 1473 1471 1471 1471 1472 1472 1474 1476 1472 1470 1471 1467 1462 1460 1462 1462 1457 1456 1455 1450 1444 1439 1439 1442 1443 1443 1444 1444 1437 1428 1425 1415 1402 1402 1402 1397 1397 1397 1396 1397 1397 1400 1404 1404 1404 1406 1405 1406 1408 1400 1398 1398 1386 1383 1393 1395 1389 1369 1347 1350 1357 1355 1357 1358 1357 1358 1357 1357 1356 1355 1357 1358
1492 1490 1488 1487 1489 1490 1490 1490 1490 1490 1491 1491 1491 1484 1478 1475 1472 1471 1472 1472 1473 1473 1475 1478 1473 1468 1469 1469 1465 1462 1464 1465 1462 1461 1461 1455 1446 1439 1440 1444 1444 1444 1445 1447 1444 1436 1437 1430 1407 1397 1401 1398 1396 1400 1400 1397 1395 1395 1397 1397 1399 1407 1408 1407 1408 1402 1398 1395 1382 1376 1382 1382 1379 1367 1350 1349 1351 1349 1350 1351 1353 1354 1354 1354 1353 1352 1354 1355
1489 1488 1484 1482 1484 1486 1488 1488 1488 1489 1490 1489 1488 1481 1475 1473 1471 1471 1472 1472 1473 1473 1474 1474 1471 1467 1467 1467 1466 1464 1465 1466 1464 1465 1463 1456 1446 1439 1440 1444 1444 1444 1444 1445 1447 1442 1441 1437 1415 1398 1401 1401 1396 1400 1403 1400 1398 1398 1398 1395 1392 1395 1398 1398 1396 1393 1393 1392 1382 1376 1374 1369 1365 1359 1350 1346 1344 1346 1348 1347 1349 1350 1349 1350 1350 1349 1351 1351
1487 1485 1480 1478 1481 1484 1485 1485 1486 1487 1486 1484 1482 1478 1474 1472 1471 1470 1471 1471 1471 1471 1471 1470 1469 1468 1467 1466 1466 1464 1465 1464 1463 1464 1461 1455 1449 1442 1441 1443 1442 1443 1443 1442 1445 1443 1440 1440 1430 1412 1407 1408 1402 1397 1397 1396 1395 1398 1400 1399 1395 1391 1391 1394 1391 1385 1386 1388 1382 1375 1368 1357 1351 1349 1344 1340 1340 1345 1347 1346 1346 1346 1345 1346 1346 1347 1348 1349
1486 1483 1477 1476 1479 1480 1482 1483 1482 1482 1481 1478 1476 1474 1472 1471 1469 1468 1469 1470 1469 1468 1468 1467 1467 1467 1466 1466 1466 1464 1464 1463 1461 1461 1457 1454 1453 1448 1441 1441 1442 1442 1442 1442 1443 1443 1440 1440 1437 1426 1419 1417 1408 1396 1395 1394 1390 1391 1393 1393 1394 1392 1391 1397 1396 1385 1382 1384 1378 1372 1365 1351 1342 1342 1339 1337 1339 1341 1343 1343 1343 1342 1342 1343 1344 1346 1347 1347
1482 1477 1472 1473 1476 1476 1478 1478 1476 1476 1475 1471 1469 1469 1468 1467 1466 1466 1467 1467 1467 1465 1464 1464 1464 1464 1464 1463 1463 1462 1462 1461 1459 1459 1455 1452 1451 1448 1443 1442 1443 1442 1442 1442 1441 1441 1440 1439 1437 1431 1424 1418 1409 1400 1400 1399 1392 1389 1389 1387 1387 1388 1388 1393 1394 1385 1381 1382 1377 1374 1370 1354 1341 1341 1341 1340 1340 1340 1339 1339 1339 1341 1341 1341 1343 1345 1346 1347
1476 1471 1468 1469 1470 1472 1475 1472 1470 1470 1467 1464 1463 1463 1463 1463 1462 1463 1463 1463 1463 1462 1461 1461 1460 1460 1460 1459 1459 1459 1459 1458 1456 1454 1453 1450 1446 1445 1443 1442 1443 1442 1442 1442 1441 1440 1441 1441 1438 1431 1421 1413 1407 1399 1396 1397 1397 1396 1394 1392 1391 1389 1385 1384 1383 1381 1379 1378 1377 1380 1377 1359 1344 1342 1342 1341 1341 1341 1340 1338 1339 1341 1341 1341 1342 1343 1345 1346
1470 1467 1466 1466 1465 1467 1468 1465 1464 1463 1460 1459 1459 1458 1458 1458 1457 1458 1458 1458 1458 1457 1457 1456 1456 1456 1454 1453 1454 1454 1455 1456 1453 1449 1449 1448 1444 1442 1442 1441 1442 1441 1441 1442 1442 1443 1445 1443 1441 1440 1433 1423 1412 1400 1394 1399 1405 1407 1406 1407 1406 1401 1396 1389 1383 1383 1382 1376 1374 1377 1372 1358 1347 1343 1342 1342 1342 1342 1342 1341 1341 1342 1341 1342 1342 1343 1344 1345
1467 1463 1460 1460 1461 1460 1457 1454 1456 1455 1454 1454 1453 1451 1453 1452 1451 1452 1452 1452 1452 1452 1453 1452 1451 1450 1450 1450 1450 1449 1450 1452 1449 1447 1446 1446 1443 1441 1440 1440 1440 1440 1440 1442 1441 1444 1447 1443 1444 1450 1448 1439 1425 1410 1404 1411 1417 1417 1414 1413 1411 1410 1411 1408 1400 1392 1384 1375 1372 1374 1370 1360 1351 1345 1342 1343 1343 1343 1344 1344 1343 1343 1343 1343 1344 1345 1346 1346
1464 1459 1456 1457 1457 1454 1448 1446 1449 1449 1447 1448 1445 1443 1446 1446 1443 1444 1447 1448 1448 1447 1447 1447 1447 1448 1447 1447 1448 1447 1446 1447 1447 1446 1445 1444 1441 1439 1437 1438 1439 1438 1439 1440 1439 1441 1444 1441 1441 1445 1442 1437 1431 1419 1414 1420 1423 1421 1417 1412 1410 1411 1413 1415 1415 1405 1390 1379 1370 1365 1368 1367 1359 1351 1346 1343 1343 1344 1345 1345 1345 1345 1346 1346 1346 1347 1348 1348
1459 1453 1451 1453 1452 1448 1445 1443 1444 1441 1438 1440 1437 1434 1437 1438 1438 1440 1441 1442 1441 1442 1443 1443 1443 1444 1442 1441 1443 1444 1443 1443 1444 1443 1442 1440 1438 1436 1435 1435 1436 1436 1436 1436 1436 1438 1440 1439 1436 1437 1434 1431 1428 1422 1419 1423 1423 1421 1419 1414 1411 1410 1409 1413 1416 1410 1404 1402 1385 1364 1364 1367 1360 1354 1351 1346 1343 1344 1345 1345 1346 1346 1348 1349 1348 1349 1350 1350
1452 1445 1442 1446 1444 1440 1438 1436 1436 1434 1431 1431 1429 1427 1429 1431 1433 1435 1434 1434 1435 1437 1439 1439 1437 1436 1434 1435 1438 1439 1439 1440 1440 1437 1435 1434 1434 1434 1434 1432 1432 1433 1433 1433 1433 1433 1437 1436 1432 1431 1431 1427 1424 1422 1421 1423 1421 1417 1416 1414 1410 1408 1408 1411 1412 1407 1409 1415 1404 1386 1382 1376 1361 1353 1350 1347 1344 1344 1345 1346 1347 1347 1349 1349 1349 1350 1351 1351
1445 1440 1437 1438 1435 1429 1426 1426 1427 1428 1426 1425 1423 1422 1424 1425 1425 1425 1426 1429 1431 1430 1431 1432 1430 1428 1427 1428 1432 1434 1434 1434 1432 1429 1428 1429 1432 1433 1433 1432 1430 1430 1430 1430 1431 1431 1434 1433 1429 1428 1429 1425 1422 1421 1419 1420 1420 1415 1413 1411 1409 1407 1406 1407 1407 1403 1404 1408 1404 1398 1395 1386 1370 1357 1349 1346 1345 1344 1344 1346 1347 1348 1349 1349 1350 1350 1350 1351
1440 1437 1434 1432 1426 1421 1420 1420 1422 1422 1418 1416 1414 1413 1416 1417 1416 1417 1419 1421 1421 1419 1421 1422 1419 1419 1421 1422 1426 1426 1422 1420 1420 1420 1422 1425 1428 1430 1431 1431 1430 1428 1429 1429 1430 1431 1434 1432 1427 1427 1429 1426 1422 1421 1418 1417 1418 1415 1411 1408 1407 1406 1404 1403 1402 1399 1399 1400 1397 1393 1390 1383 1372 1360 1351 1348 1348 1347 1346 1345 1345 1348 1349 1349 1349 1350 1350 1350
1434 1432 1431 1427 1420 1418 1417 1414 1417 1416 1407 1404 1405 1406 1408 1407 1406 1409 1408 1405 1406 1407 1409 1409 1409 1412 1415 1416 1419 1417 1410 1408 1410 1411 1415 1419 1422 1425 1425 1426 1427 1428 1429 1429 1429 1430 1433 1431 1427 1429 1432 1427 1420 1418 1416 1412 1411 1410 1407 1405 1405 1405 1402 1399 1397 1395 1395 1395 1393 1391 1389 1381 1371 1364 1357 1352 1350 1350 1348 1346 1346 1347 1348 1347 1347 1346 1348 1349
1429 1426 1426 1422 1414 1411 1411 1409 1411 1407 1393 1392 1397 1398 1399 1396 1396 1403 1402 1397 1398 1399 1398 1399 1400 1404 1409 1410 1409 1403 1397 1398 1403 1406 1410 1413 1415 1418 1419 1420 1423 1425 1426 1427 1428 1428 1429 1430 1429 1431 1433 1425 1418 1416 1415 1413 1414 1411 1405 1402 1401 1399 1397 1394 1391 1389 1389 1391 1391 1389 1384 1377 1371 1369 1366 1358 1354 1352 1350 1348 1349 1349 1348 1348 1346 1344 1343 1343